Regional Weather Roundup
Issued by NWS

Home | Current Version | Previous Version | Text Only | Print | Product List | Glossary Off
Versions: 1 2 3 4 5 6 7 8 9 10 11 12 13 14 15 16 17 18 19 20 21 22 23 24 25 26 27 28 29 30 31 32 33 34 35 36 37 38 39 40 41 42 43 44 45 46 47 48 49 50

000
ASUS45 KBOU 291407
RWRCO

WEATHER ROUNDUP FOR COLORADO
NATIONAL WEATHER SERVICE DENVER/BOULDER CO
800 AM MDT FRI APR 29 2016

NOTE: "FAIR" INDICATES FEW OR NO CLOUDS BELOW 12000 FEET WITH NO
SIGNIFICANT WEATHER AND/OR OBSTRUCTIONS TO VISIBILITY.

COZ001>005-013-030-031-291500-
...NORTHWEST COLORADO...

CITY           SKY/WX    TMP DP  RH WIND       PRES   REMARKS
CRAIG          PTSUNNY   37  32  82 CALM      29.86R
HAYDEN         FAIR      36  30  80 SW6       29.85S
MEEKER         CLOUDY    39  35  86 W3        29.86R
MOUNT WERNER   NOT AVBL
STEAMBOAT SPGS CLOUDY    33  31  92 CALM      29.86R
WALDEN         CLOUDY    30  27  86 E3        29.90F
$$

COZ006>008-011-291500-
...WEST CENTRAL VALLEYS...

CITY           SKY/WX    TMP DP  RH WIND       PRES   REMARKS
GRAND JUNCTION FAIR      41  39  93 SW3       29.84R
MONTROSE       FAIR      41  36  82 N3        29.86R
EAGLE          CLOUDY    37  37 100 CALM      29.88R
RIFLE          FAIR      42  38  85 W8        29.83R
DELTA          NOT AVBL
NUCLA          NOT AVBL
$$

COZ017>023-064>068-291500-
...SOUTHWEST COLORADO...

CITY           SKY/WX    TMP DP  RH WIND       PRES   REMARKS
DURANGO        FAIR      36  33  89 E6        29.85R
CORTEZ         CLOUDY    35  30  82 CALM      29.85S
PAGOSA SPRINGS CLOUDY    34  34 100 W3        29.84F
TELLURIDE      FAIR      31  26  78 CALM      29.88S
WOLF CREEK PAS NOT AVBL
$$

COZ009-010-012-014-032>034-037-058>063-291500-
...CENTRAL COLORADO...

CITY           SKY/WX    TMP DP  RH WIND       PRES   REMARKS
ASPEN          CLOUDY    34  32  92 CALM      29.85S
BUENA VISTA    LGT SNOW  31  29  93 W3        29.91F VSB 3/4
COPPER MTN     NOT AVBL
BERTHOUD PASS  HAZE      14   5  67 E32G38    29.91F VSB<1/4 WCI  -7
COTTONWOOD PAS SNOW      30  27  86 E6        29.92S VSB 1/4 WCI  24
GUNNISON       CLOUDY    34  30  86 NE3       29.89R
KREMMLING      CLOUDY    34  32  93 W3        29.89F
LEADVILLE      SNOW      24  23  96 S8        29.89F VSB 1/2 WCI  15
MONARCH PASS   CLOUDY    19  16  86 NE24      29.97S WCI   2
SALIDA         CLOUDY    32  31  96 SE7       29.99S WCI  25
SUNLIGHT       PTSUNNY   28  28 100 E5        29.93S WCI  23
WILKERSON PASS SNOW     N/A N/A N/A E7        29.96R VSB 1/2
$$

COZ069>075-291500-
...SAN LUIS VALLEY/SANGRE DE CRISTO MOUNTAINS...

CITY           SKY/WX    TMP DP  RH WIND       PRES   REMARKS
ALAMOSA        SNOW      32  31  96 E14G20    29.85R VSB 1/4 WCI  22
LA VETA PASS   SNOW      23  21  93 MISG      29.89R VSB 1/4
SAGUACHE       LGT SNOW  32  32 100 N5        29.84F WCI  27
$$

COZ035-036-038>040-291500-
...NORTHERN COLORADO FRONT RANGE...

CITY           SKY/WX    TMP DP  RH WIND       PRES   REMARKS
DENVER INTL AP SNOW      33  30  88 E5        29.96F VSB 1/4 WCI  29
DMNS CITY PARK   N/A     34  34  98 MISG      29.97S
AURORA         LGT SNOW  33  33 100 E5        29.97S FOG     WCI  28
FRONT RANGE AP SNOW      32  32 100 NE3       29.97  VSB 1/2
ERIE MUNI ARPT LGT SNOW  33  33  99 N3        29.98F
BOULDER MUN AP LGT SNOW  34  34 100 N3        29.97F
CENTENNIAL     LGT SNOW  33  32  96 CALM      29.96R VSB 1
BROOMFIELD     SNOW      34  34 100 NE5       29.97S VSB 1/2 WCI  30
FORT COLLINS   CLOUDY    34  32  93 CALM      30.00F
LONGMONT       LGT SNOW  36  34  94 CALM      30.00F
$$

COZ041-046-047-076>085-087-088-291500-
...PIKES PEAK/PALMER DIVIDE AND SOUTHERN FOOTHILLS...

CITY           SKY/WX    TMP DP  RH WIND       PRES   REMARKS
COLO. SPRINGS  HVY SNOW  33  31  92 N3        29.97R VSB 1/4
A. F. ACADEMY  LGT SNOW  32  32 100 CALM      29.95R VSB 3/4
SCHRIEVER AFB  NOT AVBL
ELLICOTT       NOT AVBL
FALCON         SNOW      31  31  98 NE6       29.97R VSB 1/4 WCI  26
FORT CARSON    LGT SNOW  32  32 100 NW6       29.95F VSB 3/4 WCI  26
LIMON          LGT SNOW  32  31  96 SW5       29.98R VSB 1   WCI  27
MONUMENT HILL  LGT SNOW  30  30 100 SE3       29.97R
TRINIDAD       LGT SNOW  32  30  92 N13       29.91F VSB 3/4 WCI  22
$$

COZ042>045-048>051-090-091-291500-
...NORTHEAST COLORADO...

CITY           SKY/WX    TMP DP  RH WIND       PRES   REMARKS
GREELEY ARPT   CLOUDY    36  34  93 E6        30.00F
AKRON          CLOUDY    36  34  92 E13       29.97F
BURLINGTON     LGT RAIN  39  36  89 NE15      29.97S
WRAY           NOT AVBL
STERLING       CLOUDY    37  37 100 NE7       30.00S
HOLYOKE        NOT AVBL
FORT MORGAN    LGT RAIN  36  34  94 NE10      30.00S
$$

COZ086-089-092>099-291500-
...SOUTHEAST COLORADO...

CITY           SKY/WX    TMP DP  RH WIND       PRES   REMARKS
PUEBLO         SNOW      34  31  88 N3        29.96F VSB 1/2
LA JUNTA       LGT RAIN  37  35  92 N12       29.95S
LAMAR          CLOUDY    41  40  96 NE18      29.90F
SPRINGFIELD      N/A     39  39 100 NE20G28   29.86F
$$



USA.gov is the U.S. government's official web portal to all federal, state and local government web resources and services.